Location: São Paulo
(23.5507°S, 46.6334°W)
Time: 14:39:47
(UTC-03:00)

Hubble Space Telescope - Visible Passes

Search period start: 24 July 2021 00:00
Search period end: 03 August 2021 00:00
Orbit: 535 x 539 km, 28.5° (Epoch: 23 July)

Date Brightness Start Highest point End Pass type
(mag) Time Alt. Az. Time Alt. Az. Time Alt. Az.
24 Jul 3.1 05:36:35 10° NNW 05:39:44 21° NNE 05:42:54 10° ENE visible
25 Jul 2.6 05:25:10 10° NNW 05:28:42 27° NNE 05:32:15 10° E visible
26 Jul 2.1 05:15:25 20° NNW 05:17:41 35° NNE 05:21:30 10° E visible
27 Jul 1.6 05:05:41 38° NNW 05:06:40 46° NNE 05:10:40 10° E visible
28 Jul 1.2 04:55:48 59° NNE 04:55:48 59° NNE 04:59:46 10° E visible
29 Jul 1.7 04:45:47 47° E 04:45:47 47° E 04:48:51 10° ESE visible
30 Jul 2.5 04:35:41 30° ESE 04:35:41 30° ESE 04:37:54 10° ESE visible
30 Jul 1.4 06:11:06 10° WSW 06:15:05 43° S 06:19:04 10° ESE visible
31 Jul 3.1 04:25:28 21° ESE 04:25:28 21° ESE 04:26:55 10° ESE visible
31 Jul 1.5 06:00:47 13° WSW 06:04:10 41° S 06:08:08 10° ESE visible
01 Aug 3.6 04:15:12 15° ESE 04:15:12 15° ESE 04:15:57 10° ESE visible
01 Aug 1.5 05:50:30 17° WSW 05:53:16 40° S 05:57:13 10° ESE visible
02 Aug 4.0 04:04:52 11° ESE 04:04:52 11° ESE 04:04:58 10° ESE visible
02 Aug 1.5 05:40:11 22° SW 05:42:22 41° S 05:46:19 10° ESE visible
